Miscellaneous Local Product
Issued by NWS North Platte, NE

Home | Current Version | Previous Version | Text Only | Print | Product List | Glossary On
Versions: 1 2 3 4 5 6 7 8 9 10 11 12 13 14 15 16 17 18 19 20 21 22 23 24 25 26 27 28 29 30 31 32 33 34 35 36 37 38 39 40 41 42 43 44 45 46 47 48 49 50
000
AXUS43 KLBF 291610
MISLBF


WESTERN AND NORTH CENTRAL NEBRASKA HOURLY WEATHER ROUNDUP
NATIONAL WEATHER SERVICE NORTH PLATTE NE
1100 AM CDT WED OCT 29 2014

***STATIONS NOT REPORTING VARIABLES SUCH AS SKY/WEATHER OR
PRESSURE ARE PROVIDED BY THE NEBRASKA DEPARTMENT OF
ROADS...RAWS...AND APRS NETWORKS...AND ARE NOT UNDER
NATIONAL WEATHER SERVICE QUALITY CONTROL***

...OBSERVATIONS IN AND NEAR THE EASTERN PANHANDLE OF NEBRASKA...

CITY           SKY/WX    TMP DP  RH WIND       PRES   REMARKS
PINE RIDGE     SUNNY     45  26  47 W6        30.06F
CHADRON        SUNNY     43  28  55 SW6       30.07F
ALLIANCE       SUNNY     46  32  58 W9        30.09F
SIDNEY         SUNNY     53  26  35 W9        30.14F
WHITECLAY        N/A     43  25  49 CALM        N/A
RUSHVILLE        N/A     38  24  57 W9          N/A  WCI  31
CRESCENT LAKE    N/A     49  31  51 S3          N/A
LISCO            N/A     44  24  46 W5          N/A
LEWELLEN         N/A     43  27  54 CALM        N/A
$$

...OBSERVATIONS IN NORTH CENTRAL NEBRASKA...

CITY           SKY/WX    TMP DP  RH WIND       PRES   REMARKS
VALENTINE      SUNNY     47  26  44 S9        30.09F
THEDFORD       SUNNY     50  24  36 S13       30.11F
AINSWORTH      SUNNY     47  25  41 S12       30.11F
O`NEILL        SUNNY     44  34  66 S6        30.17F
ORD            SUNNY     40  30  67 E5        30.17F
BROKEN BOW     SUNNY     50  28  42 S12       30.15F
BROWNLEE         N/A     48  25  39 S17         N/A
SPRINGVIEW       N/A     38  31  77 CALM        N/A
BREWSTER         N/A     49  23  35 S12         N/A
ROSE             N/A     47  28  46 SE9         N/A
NEWPORT          N/A     47  29  49 S7          N/A
SARGENT          N/A     46  30  54 CALM        N/A
COMSTOCK         N/A     51  28  41 S8          N/A
CHAMBERS         N/A     46  33  60 S6          N/A
$$

...OBSERVATIONS IN SOUTHWEST NEBRASKA AND FAR NORTHEAST COLORADO...

CITY           SKY/WX    TMP DP  RH WIND       PRES   REMARKS
WRAY           FAIR      54  27  34 W12       30.15S
HOLYOKE        FAIR      54  32  43 SW5       30.14F
IMPERIAL       SUNNY    N/A N/A N/A VRB3      30.15F
OGALLALA       SUNNY     41  28  59 SW6       30.13F
NORTH PLATTE   SUNNY     46  27  47 S5        30.14F
MCCOOK         SUNNY     44  26  49 S3        30.17F
LEXINGTON      SUNNY     47  30  50 S8        30.18F
PAXTON           N/A     30  26  86 CALM        N/A
SUTHERLAND       N/A     41  21  45 SW6         N/A
BRADY            N/A     45  27  49 N3          N/A
GOTHENBURG       N/A     37  24  59 CALM        N/A
CALLAWAY         N/A     39  32  77 S8          N/A  WCI  33
$$

...SOME WEATHER OBSERVATIONS FROM AROUND THE REGION...

CITY           SKY/WX    TMP DP  RH WIND       PRES   REMARKS
DENVER         MOSUNNY   56  20  24 S10       30.18F
LARAMIE        SUNNY     50  18  28 W18G25    30.24R
CHEYENNE       SUNNY     56  16  20 W22G32    30.17S
SCOTTSBLUFF    SUNNY     42  29  59 CALM      30.11F
RAPID CITY     SUNNY     42  28  57 CALM      30.01F
PIERRE         SUNNY     38  31  76 SE14      30.08F WCI  30
WINNER         FAIR      47  28  47 S12G17    30.10F
SIOUX FALLS    MOSUNNY   43  33  68 CALM      30.18F
OMAHA          SUNNY     45  33  63 CALM      30.27S
GRAND ISLAND   SUNNY     46  32  58 SE5       30.22F
KANSAS CITY    SUNNY     51  36  56 NW6       30.26F
WICHITA        SUNNY     58  37  45 S5        30.24S
HAYS           SUNNY     54  32  43 SE10      30.21S
LIBERAL        SUNNY     57  37  47 SW18      30.24F
GOODLAND       SUNNY     57  34  41 W7        30.16F
$$



USA.gov is the U.S. government's official web portal to all federal, state and local government web resources and services.